Location: Althorst
(53.6379°N, 10.7715°E)
Time: 04:17:03
(UTC+00:00)

Cosmos 2333 Rocket - Pass Details

Date: 10 December 2019
Orbit: 837 x 865 km, 70.8° (Epoch: 18 January)

Event Time Altitude Azimuth Distance (km) Brightness Sun altitude
Rises 17:31:26 0° 238° (WSW) 3,425 6.5 -21.4°
Reaches altitude 10° 17:34:02 10° 245° (WSW) 2,495 5.7 -21.8°
Maximum altitude 17:39:26 41° 315° (NW) 1,236 3.3 -22.6°
Enters shadow 17:43:05 20° 16° (NNE) 1,917 3.8 -23.1°
